EW2804 Weather Reports


time (UTC)temp
C
wind
direction
speed
KPH
gust
KPH
rain 1hr
cm
rain 24hr
cm
rain mn
cm
humidity
%
barometer
mb
20260901014141 31 59 0.0 0.0 0.00 0.00 0.00 48 1011.3
20260901013143 32 59 0.0 0.0 0.00 0.00 0.00 42 1011.3
20260901012106 32 59 0.0 0.0 0.00 0.00 0.00 40 1011.2
20260901011059 33 59 0.0 0.0 0.00 0.00 0.00 37 1011.2
20260901010113 34 59 0.0 0.0 0.00 0.00 0.00 35 1011.2
20260901003955 35 169 0.0 4.8 0.00 0.00 0.00 31 1011.2
20260901003008 36 169 0.0 0.0 0.00 0.00 0.00 31 1011.1
20260901002003 36 169 0.0 4.8 0.00 0.00 0.00 31 1011.1
20260901001018 36 211 1.6 0.0 0.00 0.00 0.00 30 1011.1
20260831235949 36 136 1.6 11.3 0.00 0.00 0.00 28 1011.1
20260831232720 37 142 1.6 9.7 0.00 0.00 0.00 29 1011.0
20260831231713 37 140 1.6 9.7 0.00 0.00 0.00 30 1011.1
20260831230716 37 179 1.6 8.0 0.00 0.00 0.00 28 1011.2
20260831225725 37 142 3.2 9.7 0.00 0.00 0.00 28 1011.2
20260831224739 37 84 1.6 9.7 0.00 0.00 0.00 29 1011.2
20260831222602 38 129 3.2 9.7 0.00 0.00 0.00 27 1011.3
20260831221526 37 205 1.6 9.7 0.00 0.00 0.00 28 1011.3
20260831220508 37 178 3.2 11.3 0.00 0.00 0.00 29 1011.5
20260831215435 37 175 3.2 11.3 0.00 0.00 0.00 29 1011.6
20260831214434 37 86 1.6 12.9 0.00 0.00 0.00 29 1011.7
20260831213435 37 59 3.2 12.9 0.00 0.00 0.00 28 1011.7
20260831212456 37 138 3.2 11.3 0.00 0.00 0.00 31 1011.9
20260831211438 38 138 3.2 11.3 0.00 0.00 0.00 28 1011.9
20260831210447 37 140 3.2 14.5 0.00 0.00 0.00 30 1012.0
20260831205501 37 73 4.8 16.1 0.00 0.00 0.00 30 1012.2
20260831204504 37 127 4.8 16.1 0.00 0.00 0.00 30 1012.4
20260831203512 37 257 0.0 6.4 0.00 0.00 0.00 31 1012.4
20260831202512 36 197 3.2 12.9 0.00 0.00 0.00 31 1012.6
20260831201449 37 167 3.2 12.9 0.00 0.00 0.00 30 1012.7
20260831200456 38 279 3.2 19.3 0.00 0.00 0.00 29 1012.8
20260831195506 37 197 4.8 19.3 0.00 0.00 0.00 29 1012.8
20260831194517 37 130 4.8 14.5 0.00 0.00 0.00 30 1013.0
20260831192410 37 113 3.2 11.3 0.00 0.00 0.00 31 1013.4
20260831191359 38 115 3.2 17.7 0.00 0.00 0.00 30 1013.4
20260831190325 37 171 4.8 17.7 0.00 0.00 0.00 33 1013.5
20260831185312 37 90 4.8 16.1 0.00 0.00 0.00 32 1013.6
20260831184244 36 138 3.2 16.1 0.00 0.00 0.00 36 1013.7
20260831182121 36 154 3.2 12.9 0.00 0.00 0.00 36 1014.0
20260831181142 36 142 3.2 11.3 0.00 0.00 0.00 35 1014.1
20260831180200 36 90 3.2 14.5 0.00 0.00 0.00 36 1014.4
20260831175130 36 124 4.8 14.5 0.00 0.00 0.00 36 1014.6
20260831174143 36 141 4.8 12.9 0.00 0.00 0.00 35 1014.6
20260831173106 35 199 4.8 12.9 0.00 0.00 0.00 37 1014.7
20260831172110 36 42 3.2 11.3 0.00 0.00 0.00 37 1014.8
20260831171127 35 251 3.2 11.3 0.00 0.00 0.00 37 1014.9
20260831170128 35 240 3.2 8.0 0.00 0.00 0.00 37 1015.0
20260831165124 35 196 3.2 9.7 0.00 0.00 0.00 37 1014.9
20260831162948 35 183 3.2 12.9 0.00 0.00 0.00 40 1015.0
20260831162008 34 237 3.2 12.9 0.00 0.00 0.00 41 1015.1
20260831160934 34 174 3.2 9.7 0.00 0.00 0.00 42 1015.1
20260831155933 34 157 1.6 14.5 0.00 0.00 0.00 42 1015.1
20260831154906 33 182 3.2 14.5 0.00 0.00 0.00 43 1015.2
20260831153902 33 157 1.6 9.7 0.00 0.00 0.00 44 1015.2
20260831151711 32 227 1.6 6.4 0.00 0.00 0.00 48 1014.9
20260831145448 31 148 1.6 6.4 0.00 0.00 0.00 50 1015.0
20260831144410 31 175 1.6 6.4 0.00 0.00 0.00 54 1015.0
20260831142247 30 224 1.6 9.7 0.00 0.00 0.00 57 1015.0
20260831140042 29 222 1.6 4.8 0.00 0.00 0.00 62 1014.9
20260831135039 28 194 0.0 4.8 0.00 0.00 0.00 67 1014.8
20260831134037 27 115 0.0 0.0 0.00 0.00 0.00 69 1014.6
20260831133007 26 181 0.0 3.2 0.00 0.00 0.00 74 1014.5
20260831130758 23 254 0.0 0.0 0.00 0.00 0.00 79 1014.2
20260831125736 23 254 0.0 0.0 0.00 0.00 0.00 79 1014.1
20260831124748 23 254 0.0 0.0 0.00 0.00 0.00 79 1013.9
20260831123727 23 24 0.0 0.0 0.00 0.00 0.00 79 1013.7
20260831122704 23 154 0.0 0.0 0.00 0.00 0.00 78 1013.6
20260831121656 23 154 0.0 0.0 0.00 0.00 0.00 78 1013.4
20260831120622 23 154 0.0 0.0 0.00 0.00 0.00 77 1013.3
20260831115632 23 154 0.0 0.0 0.00 0.00 0.00 76 1013.2
20260831114624 23 154 0.0 0.0 0.00 0.00 0.00 76 1013.0
20260831113629 23 154 0.0 0.0 0.00 0.00 0.00 75 1013.0
20260831112631 23 154 0.0 0.0 0.00 0.00 0.00 74 1012.9
20260831111610 23 154 0.0 0.0 0.00 0.00 0.00 73 1012.8
20260831110548 23 154 0.0 0.0 0.00 0.00 0.00 72 1012.7
20260831105541 24 154 0.0 0.0 0.00 0.00 0.00 72 1012.6
20260831104602 24 154 0.0 0.0 0.00 0.00 0.00 70 1012.7
20260831102441 25 154 0.0 0.0 0.00 0.00 0.00 67 1012.7
20260831100334 26 154 0.0 0.0 0.00 0.00 0.00 64 1012.5
20260831095348 26 154 0.0 0.0 0.00 0.00 0.00 64 1012.4
20260831094352 27 154 0.0 0.0 0.00 0.00 0.00 62 1012.4
20260831093331 27 154 0.0 0.0 0.00 0.00 0.00 61 1012.4
20260831092314 27 154 0.0 0.0 0.00 0.00 0.00 61 1012.4
20260831091314 27 154 0.0 0.0 0.00 0.00 0.00 59 1012.3
20260831090326 27 154 0.0 0.0 0.00 0.00 0.00 58 1012.3
20260831085312 28 154 0.0 0.0 0.00 0.00 0.00 57 1012.2
20260831084252 28 158 0.0 0.0 0.00 0.00 0.00 56 1012.2
20260831083251 28 153 0.0 1.6 0.00 0.00 0.00 56 1012.2
20260831082252 28 153 0.0 4.8 0.00 0.00 0.00 55 1012.3
20260831081222 28 142 0.0 1.6 0.00 0.00 0.00 56 1012.3
20260831080211 27 175 0.0 4.8 0.00 0.00 0.00 56 1012.2
20260831075141 27 92 0.0 8.0 0.00 0.00 0.00 58 1012.1
20260831073021 25 128 0.0 0.0 0.00 0.00 0.00 65 1011.9
20260831070825 25 128 0.0 0.0 0.00 0.00 0.00 68 1012.0
20260831065805 25 128 0.0 0.0 0.00 0.00 0.00 67 1012.0
20260831063636 25 128 0.0 0.0 0.00 0.00 0.00 66 1012.2
20260831061433 25 128 0.0 0.0 0.00 0.00 0.00 66 1012.2
20260831060410 25 128 0.0 0.0 0.00 0.00 0.00 66 1012.1
20260831055430 25 128 0.0 0.0 0.00 0.00 0.00 65 1012.1
20260831052213 26 128 0.0 0.0 0.00 0.00 0.00 64 1012.0
20260831051156 26 128 0.0 0.0 0.00 0.00 0.00 63 1011.9
20260831050157 26 128 0.0 0.0 0.00 0.00 0.00 63 1011.9
20260831045204 26 128 0.0 0.0 0.00 0.00 0.00 62 1011.8
20260831044137 27 128 0.0 0.0 0.00 0.00 0.00 62 1011.9
20260831043136 27 128 0.0 0.0 0.00 0.00 0.00 61 1011.9
20260831042155 27 128 0.0 0.0 0.00 0.00 0.00 59 1011.9
20260831040023 28 128 0.0 0.0 0.00 0.00 0.00 57 1011.8
20260831035019 28 128 0.0 0.0 0.00 0.00 0.00 56 1011.7
20260831034014 28 128 0.0 0.0 0.00 0.00 0.00 55 1011.7
20260831031847 29 128 0.0 0.0 0.00 0.00 0.00 54 1011.6
20260831030830 29 128 0.0 0.0 0.00 0.00 0.00 53 1011.5
20260831025815 29 128 0.0 0.0 0.00 0.00 0.00 52 1011.4
20260831024741 29 128 0.0 0.0 0.00 0.00 0.00 50 1011.3
20260831021515 30 128 0.0 0.0 0.00 0.00 0.00 45 1011.0
20260831015421 30 128 0.0 0.0 0.00 0.00 0.00 45 1010.6